This is the latest recevied weather packets stored in our database for station/object MIDVIL-WX. If no packets are shown the sender has not sent any weather packets the latest 10 day(s).
| Time | Temp. | Humidity | Pressure | Rain* | Wind** | Luminosity | Snow |
|---|---|---|---|---|---|---|---|
| 1777441524 | 9.44° C | 86% | 987.6 hPa | 0 mm | - | - | - |
| 1777440645 | 9.44° C | 87% | 986.6 hPa | 0 mm | - | - | - |
| 1777439725 | 9.44° C | 87% | 986.6 hPa | 0 mm | - | - | - |
| 1777438852 | 9.44° C | 87% | 986.6 hPa | 0 mm | - | - | - |
| 1777437925 | 9.44° C | 85% | 988 hPa | 0 mm | - | - | - |
| 1777437044 | 9.44° C | 85% | 986 hPa | 0 mm | - | - | - |
| 1777436124 | 9.44° C | 85% | 986 hPa | 0 mm | - | - | - |
| 1777435255 | 9.44° C | 85% | 986 hPa | 0 mm | - | - | - |
| 1777434324 | 10° C | 83% | 987.4 hPa | 0 mm | - | - | - |
| 1777433444 | 10° C | 82% | 987.1 hPa | 0 mm | - | - | - |
| 1777432524 | 10° C | 82% | 987.1 hPa | 0 mm | - | - | - |
| 1777431651 | 10° C | 82% | 987.1 hPa | 0 mm | - | - | - |
| 1777430723 | 10° C | 75% | 985.2 hPa | 0 mm | - | - | - |
| 1777429840 | 10° C | 78% | 986.3 hPa | 0 mm | - | - | - |
| 1777428924 | 11.11° C | 78% | 986.3 hPa | 0 mm | - | - | - |
| 1777428050 | 11.11° C | 78% | 986.3 hPa | 0 mm | - | - | - |
| 1777427125 | 11.11° C | 76% | 985.9 hPa | 0 mm | - | - | - |
| 1777426239 | 11.67° C | 76% | 985.9 hPa | 0 mm | - | - | - |
| 1777425325 | 11.67° C | 76% | 985.9 hPa | 0 mm | - | - | - |
| 1777424449 | 11.11° C | 76% | 985.9 hPa | 0 mm | - | - | - |
| 1777423524 | 11.67° C | 72% | 985.5 hPa | 0 mm | - | - | - |
| 1777422637 | 11.67° C | 73% | 986.1 hPa | 0 mm | - | - | - |
| 1777421724 | 11.67° C | 73% | 986.1 hPa | 0 mm | - | - | - |
| 1777420851 | 12.22° C | 73% | 986.1 hPa | 0 mm | - | - | - |
| 1777419923 | 12.22° C | 67% | 986.3 hPa | 0 mm | - | - | - |
* Rain latest hour (hover to see other rain measurements)
** Current wind speed in m/s (hover to see current wind gust speed)